Eagle, AK

3:48 PM AKST on December 16, 2017 (GMT -0900)
Eagle

Weather History for PAEG - January, 2013

Change the Weather History Date:

Thursday, January 31, 2013

  Actual Average (PABN) Record (PABN)
Temperature  
Mean Temperature 8 °F -  
Max Temperature 10 °F 5 °F 24 °F (2000)
Min Temperature 6 °F 0 °F -36 °F (1999)
Degree Days  
Heating Degree Days 57    
Moisture  
Dew Point -1 °F    
Average Humidity 65    
Maximum Humidity 73    
Minimum Humidity 55    
Precipitation  
Precipitation 0.00 in - - ()
Sea Level Pressure  
Sea Level Pressure 29.93 in    
Wind  
Wind Speed 12 mph (SE)    
Max Wind Speed 17 mph    
Max Gust Speed 29 mph    
Visibility 4 miles    
Events Snow    
Averages and records for this station are not official NWS values.
T = Trace of Precipitation, MM = Missing Value Source: NWS Daily Summary

Daily Weather History Graph

Daily Weather History Graph

Search for Another Location

Airport or City:

Trip Planner

Search our weather history database for the weather conditions in past years. The results will help you decide how hot, cold, wet, or windy it might be!

Date:

Astronomy

Jan. 31, 2013 Rise Set
Actual Time 9:11 AM AKST 4:05 PM AKST
Civil Twilight 8:12 AM AKST 5:04 PM AKST
Nautical Twilight 7:11 AM AKST 6:05 PM AKST
Astronomical Twilight 6:14 AM AKST 7:02 PM AKST
Moon 11:43 PM AKST (1/31) 9:05 AM AKST (1/31)
Length of Visible Light 8h 52m
Length of Day
6h 54m
Waning Gibbous, 78% of the Moon is Illuminated
Jan 31
Waning Gibbous
Feb 3
Last Quarter
Feb 9
New
Feb 17
First Quarter
Feb 25
Full

Hourly Weather History & Observations

Time (AKST) Temp. Windchill Dew Point Humidity Pressure Visibility Wind Dir Wind Speed Gust Speed Precip Events Conditions
12:53 AM 6.1 °F -8.7 °F -7.1 °F 55% 29.97 in 10.0 mi SE 10.4 mph 16.1 mph N/A   Overcast
1:53 AM 6.1 °F -9.5 °F -7.1 °F 55% 29.97 in 10.0 mi SE 11.5 mph 24.2 mph N/A   Overcast
3:53 AM 6.1 °F -10.2 °F -7.1 °F 55% 29.94 in 10.0 mi ESE 12.7 mph 21.9 mph N/A   Overcast
4:53 AM 6.1 °F -10.9 °F -6.0 °F 58% 29.92 in 10.0 mi SE 13.8 mph 21.9 mph N/A   Overcast
5:53 AM 6.1 °F -10.2 °F -6.0 °F 58% 29.91 in 10.0 mi SE 12.7 mph 28.8 mph N/A   Scattered Clouds
6:53 AM 7.0 °F -8.3 °F -5.1 °F 58% 29.91 in 10.0 mi ESE 11.5 mph 17.3 mph N/A   Partly Cloudy
7:53 AM 7.0 °F -7.5 °F -5.1 °F 58% 29.91 in 10.0 mi SE 10.4 mph 23.0 mph N/A   Partly Cloudy
8:53 AM 7.0 °F -8.3 °F -5.1 °F 58% 29.92 in 10.0 mi East 11.5 mph 20.7 mph N/A   Overcast
9:53 AM 7.0 °F -10.4 °F -4.0 °F 61% 29.93 in 2.0 mi SE 15.0 mph 24.2 mph 0.00 in Snow Light Snow
10:00 AM 6.8 °F -8.6 °F -2.2 °F 67% 29.85 in 1.5 mi SE 11.5 mph 25.3 mph 0.00 in Snow Light Snow
10:11 AM 6.8 °F -5.9 °F -2.2 °F 67% 29.86 in 3.0 mi SE 8.1 mph 24.2 mph 0.00 in Snow Light Snow
10:18 AM 6.8 °F -7.8 °F -2.2 °F 67% 29.86 in 1.8 mi ESE 10.4 mph 21.9 mph 0.00 in Snow Light Snow
10:42 AM 8.6 °F -2.6 °F -2.2 °F 62% 29.86 in 3.0 mi ESE 6.9 mph 18.4 mph 0.00 in Snow Light Snow
10:53 AM 7.0 °F -7.5 °F -2.0 °F 67% 29.93 in 7.0 mi ESE 10.4 mph - 0.00 in   Overcast
11:30 AM 8.6 °F -6.3 °F -2.2 °F 62% 29.86 in 1.8 mi ESE 11.5 mph 24.2 mph 0.00 in Snow Light Snow
11:50 AM 8.6 °F -5.5 °F -2.2 °F 62% 29.86 in 2.0 mi ESE 10.4 mph 18.4 mph 0.00 in Snow Light Snow
11:53 AM 8.1 °F -3.2 °F -2.0 °F 64% 29.93 in 2.0 mi Variable 6.9 mph 18.4 mph 0.00 in Snow Light Snow
12:08 PM 8.6 °F -5.5 °F -2.2 °F 62% 29.87 in 3.0 mi ESE 10.4 mph 21.9 mph 0.00 in Snow Light Snow
12:15 PM 8.6 °F -7.0 °F -2.2 °F 62% 29.87 in 2.0 mi SE 12.7 mph 25.3 mph 0.00 in Snow Light Snow
12:34 PM 8.6 °F -7.0 °F -0.4 °F 67% 29.87 in 1.2 mi ESE 12.7 mph 25.3 mph 0.00 in Snow Light Snow
12:53 PM 8.1 °F -6.2 °F -0.9 °F 67% 29.94 in 1.0 mi SE 10.4 mph 21.9 mph 0.00 in Snow Light Snow
1:13 PM 8.6 °F -7.7 °F -0.4 °F 67% 29.88 in 2.5 mi ESE 13.8 mph 23.0 mph 0.00 in Snow Light Snow
1:41 PM 8.6 °F -5.5 °F -0.4 °F 67% 29.88 in 1.5 mi ESE 10.4 mph 23.0 mph 0.00 in Snow Light Snow
1:53 PM 9.0 °F -5.1 °F -0.0 °F 67% 29.95 in 1.8 mi ESE 10.4 mph 19.6 mph 0.00 in Snow Light Snow
2:10 PM 8.6 °F -8.9 °F -0.4 °F 67% 29.89 in 2.5 mi ESE 16.1 mph 25.3 mph 0.00 in Snow Light Snow
2:17 PM 8.6 °F -9.5 °F -0.4 °F 67% 29.89 in 3.0 mi ESE 17.3 mph 25.3 mph 0.00 in Snow Light Snow
2:29 PM 8.6 °F -7.7 °F -0.4 °F 67% 29.89 in 2.0 mi ESE 13.8 mph 23.0 mph 0.00 in Snow Light Snow
2:36 PM 8.6 °F -6.3 °F -0.4 °F 67% 29.89 in 1.5 mi ESE 11.5 mph 21.9 mph 0.00 in Snow Light Snow
2:53 PM 9.0 °F -6.6 °F -0.0 °F 67% 29.96 in 1.5 mi ESE 12.7 mph 23.0 mph 0.00 in Snow Light Snow
3:09 PM 8.6 °F -7.7 °F -0.4 °F 67% 29.90 in 1.2 mi ESE 13.8 mph 24.2 mph 0.00 in Snow Light Snow
3:19 PM 8.6 °F -7.0 °F -0.4 °F 67% 29.90 in 1.2 mi ESE 12.7 mph 25.3 mph 0.00 in Snow Light Snow
3:34 PM 8.6 °F -5.5 °F -0.4 °F 67% 29.90 in 2.0 mi ESE 10.4 mph 26.5 mph 0.00 in Snow Light Snow
3:44 PM 8.6 °F -7.7 °F -0.4 °F 67% 29.90 in 1.8 mi ESE 13.8 mph 24.2 mph 0.00 in Snow Light Snow
3:53 PM 9.0 °F -8.5 °F -0.0 °F 67% 29.97 in 1.8 mi SE 16.1 mph 26.5 mph 0.00 in Snow Light Snow
4:05 PM 8.6 °F -7.0 °F -0.4 °F 67% 29.90 in 2.0 mi ESE 12.7 mph 26.5 mph 0.00 in Snow Light Snow
4:23 PM 8.6 °F -8.9 °F -0.4 °F 67% 29.90 in 4.0 mi ESE 16.1 mph 23.0 mph 0.00 in Snow Light Snow
4:53 PM 9.0 °F -6.6 °F -0.0 °F 67% 29.97 in 7.0 mi ESE 12.7 mph 26.5 mph 0.00 in   Overcast
5:53 PM 9.0 °F -7.3 °F -0.0 °F 67% 29.98 in 6.0 mi ESE 13.8 mph 24.2 mph 0.00 in Snow Light Snow
6:53 PM 10.0 °F -5.9 °F 1.0 °F 67% 29.99 in 8.0 mi SE 13.8 mph 23.0 mph 0.00 in Snow Light Snow
7:36 PM 10.4 °F -5.4 °F 1.4 °F 67% 29.93 in 2.5 mi SE 13.8 mph 24.2 mph 0.00 in Snow Light Snow
7:53 PM 10.0 °F -5.2 °F 1.0 °F 67% 30.00 in 3.0 mi SE 12.7 mph 24.2 mph 0.00 in Snow Light Snow
8:06 PM 10.4 °F -6.0 °F 1.4 °F 67% 29.94 in 2.5 mi SE 15.0 mph 23.0 mph 0.00 in Snow Light Snow
8:14 PM 10.4 °F -4.8 °F 1.4 °F 67% 29.94 in 2.0 mi SE 12.7 mph 27.6 mph 0.00 in Snow Light Snow
8:34 PM 10.4 °F -4.8 °F 1.4 °F 67% 29.95 in 2.5 mi SE 12.7 mph 21.9 mph 0.00 in Snow Light Snow
8:53 PM 10.0 °F -2.9 °F 1.0 °F 67% 30.02 in 4.0 mi SE 9.2 mph 20.7 mph 0.00 in Snow Light Snow
9:53 PM 10.0 °F -4.5 °F 1.0 °F 67% 30.04 in 4.0 mi SE 11.5 mph 18.4 mph 0.00 in Snow Light Snow
10:53 PM 10.9 °F 2.9 °F 1.9 °F 67% 30.05 in 10.0 mi Variable 4.6 mph - 0.00 in   Mostly Cloudy
11:53 PM 10.0 °F - 3.0 °F 73% 30.09 in 9.0 mi Calm Calm - 0.00 in   Overcast